Regional Weather Roundup
Issued by NWS

Home | Current Version | Previous Version | Text Only | Print | Product List | Glossary Off
Versions: 1 2 3 4 5 6 7 8 9 10 11 12 13 14 15 16 17 18 19 20 21 22 23 24 25 26 27 28 29 30 31 32 33 34 35 36 37 38 39 40 41 42 43 44 45 46 47 48 49 50

000
ASUS43 KDTX 230610
RWRMI
MICHIGAN HOURLY REGIONAL WEATHER ROUNDUP
NATIONAL WEATHER SERVICE DETROIT/PONTIAC MI
200 AM EDT SUN APR 23 2017

NOTE: "FAIR" INDICATES FEW OR NO CLOUDS BELOW 12,000 FEET WITH NO
SIGNIFICANT WEATHER AND/OR OBSTRUCTION TO VISIBILITY.

MIZ047>049-052>055-059>063-066>070-074>076-081>083-230700-
SOUTHEAST LOWER MICHIGAN

CITY           SKY/WX    TMP DP  RH WIND       PRES   REMARKS
ADRIAN         CLEAR     39  35  86 CALM      30.15F
6HR MIN TEMP:  38; 6HR MAX TEMP:  53;

ALMA           CLEAR     41  35  80 CALM      30.13F
ANN ARBOR      CLEAR     35  34  96 CALM      30.14F
BAD AXE        CLEAR     37  30  74 S5        30.13S WCI  34
6HR MIN TEMP:  35; 6HR MAX TEMP:  52;

CARO           CLEAR     35  34  95 CALM      30.13S
DETROIT CITY   CLEAR     40  31  70 CALM      30.15S
6HR MIN TEMP:  40; 6HR MAX TEMP:  52;

DETROIT        CLEAR     43  33  68 CALM      30.15F
6HR MIN TEMP:  43; 6HR MAX TEMP:  56;

FLINT          CLEAR     36  34  92 NW6       30.14F WCI  31
6HR MIN TEMP:  34; 6HR MAX TEMP:  55;

GROSSE ILE     CLEAR     40  32  73 N5        30.14S
6HR MIN TEMP:  39; 6HR MAX TEMP:  52;

HILLSDALE      CLEAR     36  32  87 CALM      30.13F
HOWELL         CLEAR     39  32  76 CALM      30.13F
6HR MIN TEMP:  38; 6HR MAX TEMP:  55;


CITY           SKY/WX    TMP DP  RH WIND       PRES   REMARKS
JACKSON        CLEAR     40  36  86 SW3       30.13F
6HR MIN TEMP:  40; 6HR MAX TEMP:  56;

LAMBERTVILLE   CLEAR     37  36  93 CALM      30.15S
6HR MIN TEMP:  37; 6HR MAX TEMP:  52;

LANSING        CLEAR     41  34  76 CALM      30.14F
6HR MIN TEMP:  40; 6HR MAX TEMP:  55;

LAPEER         FAIR      36  35  94 CALM      30.14F
6HR MIN TEMP:  36; 6HR MAX TEMP:  55;

MASON          CLEAR     40  37  89 CALM      30.14F
MONROE         CLEAR     38  37  94 CALM      30.14S
6HR MIN TEMP:  37; 6HR MAX TEMP:  54;

MT. CLEMENS    CLEAR     37  31  78 CALM      30.12F
6HR MIN TEMP:  37; 6HR MAX TEMP:  49;

PONTIAC        CLEAR     39  34  82 CALM      30.13F
6HR MIN TEMP:  39; 6HR MAX TEMP:  56;

PORT HOPE        N/A     38  27  64 S3        30.10F
6HR MIN TEMP:  37; 6HR MAX TEMP:  48;

PORT HURON     CLEAR     32  30  93 W5        30.14F WCI  27
TRI CITIES     CLEAR     47  33  58 S7        30.12F
6HR MIN TEMP:  46; 6HR MAX TEMP:  55;

MIDLAND        FAIR      40  37  87 CALM      30.11F
6HR MIN TEMP:  39; 6HR MAX TEMP:  58;

TROY           CLEAR     42  32  68 CALM      30.16S
SAGINAW HB     CLEAR     41  30  65 S6        30.12F
$$
MIZ043>046-050>051-056>058-064>065-071>073-077>080-230700-
SOUTHWEST LOWER MICHIGAN

CITY           SKY/WX    TMP DP  RH WIND       PRES   REMARKS
BATTLE CREEK   CLEAR     44  35  70 CALM      30.14F
6HR MIN TEMP:  42; 6HR MAX TEMP:  58;

BENTON HARBOR  CLEAR     36  29  75 CALM      30.14F
6HR MIN TEMP:  35; 6HR MAX TEMP:  49;

BIG RAPIDS     CLEAR     37  29  72 CALM      30.11F
6HR MIN TEMP:  37; 6HR MAX TEMP:  59;

COLDWATER      CLEAR     39  33  81 SE5       30.14S
6HR MIN TEMP:  38; 6HR MAX TEMP:  56;

FREMONT        FAIR      38  26  61 CALM      30.12F
HOLLAND        CLEAR     40  33  76 CALM      30.14F
6HR MIN TEMP:  38; 6HR MAX TEMP:  53;

GRAND RAPIDS   CLEAR     41  35  79 CALM      30.13F
6HR MIN TEMP:  40; 6HR MAX TEMP:  59;

IONIA          FAIR      44  33  66 SW6       30.12F
6HR MIN TEMP:  43; 6HR MAX TEMP:  56;

KALAMAZOO      CLEAR     41  29  62 CALM      30.14F
6HR MIN TEMP:  41; 6HR MAX TEMP:  59;

LUDINGTON      CLEAR     35  32  88 CALM      30.11F
6HR MIN TEMP:  33; 6HR MAX TEMP:  53;

MARSHALL       CLEAR     38  31  76 CALM      30.14S
6HR MIN TEMP:  37; 6HR MAX TEMP:  57;

MOUNT PLEASANT CLEAR     45  31  58 CALM      30.11S
6HR MIN TEMP:  44; 6HR MAX TEMP:  61;

MUSKEGON       CLEAR     36  29  75 CALM      30.13F
6HR MIN TEMP:  36; 6HR MAX TEMP:  54;

SOUTH HAVEN    CLEAR     35  31  83 CALM      30.14F
$$
MIZ016>042-230700-
NORTHERN LOWER MICHIGAN

CITY           SKY/WX    TMP DP  RH WIND       PRES   REMARKS
ALPENA         CLEAR     34  29  82 S3        30.08F
6HR MIN TEMP:  34; 6HR MAX TEMP:  49;

BEAVER ISLAND  CLEAR     48  29  48 SW15G22   30.02F
6HR MIN TEMP:  47; 6HR MAX TEMP:  53;

BELLAIRE       CLEAR     34  31  90 CALM      30.08S
6HR MIN TEMP:  33; 6HR MAX TEMP:  55;

CADILLAC       CLEAR     32  29  88 CALM      30.09F
CHARLEVOIX     CLEAR     48  25  41 S6        30.07F
6HR MIN TEMP:  45; 6HR MAX TEMP:  55;

FRANKFORT      CLEAR     47  24  40 W5        30.10S
GAYLORD        CLEAR     42  23  46 CALM      30.07S
6HR MIN TEMP:  42; 6HR MAX TEMP:  56;

GRAYLING       CLEAR     28  25  89 CALM      30.09F
HARBOR SPRINGS CLEAR     37  28  69 CALM      30.05F
HOUGHTON LAKE  CLEAR     39  35  86 SW3       30.10F
6HR MIN TEMP:  38; 6HR MAX TEMP:  59;

MANISTEE       CLEAR     34  30  85 E5        30.11S WCI  30
OSCODA         CLEAR     33  27  78 SW6       30.09F WCI  28
6HR MIN TEMP:  33; 6HR MAX TEMP:  51;

PELLSTON       CLEAR     36  25  64 SE3       30.04F
6HR MIN TEMP:  33; 6HR MAX TEMP:  55;

ROGERS CITY    CLEAR     45  28  51 SW7       30.07S
TRAVERSE CITY  CLEAR     45  25  45 VRB3      30.07S
6HR MIN TEMP:  41; 6HR MAX TEMP:  57;

$$
MIZ007>008-015-230700-
EASTERN UPPER MICHIGAN

CITY           SKY/WX    TMP DP  RH WIND       PRES   REMARKS
KINROSS        CLEAR     40  25  55 S5        30.02F
6HR MIN TEMP:  40; 6HR MAX TEMP:  53;

MACKINAC ISLAN CLEAR     45  25  45 S10       30.02F
NEWBERRY       CLEAR     39  31  71 S9        30.00F WCI  33
6HR MIN TEMP:  39; 6HR MAX TEMP:  52;

S. S. MARIE    CLEAR     44  27  51 S3        30.00F
6HR MIN TEMP:  44; 6HR MAX TEMP:  58;

MUNISING         N/A     45  33  63 NW14      30.01S
6HR MIN TEMP:  42; 6HR MAX TEMP:  61;

$$
MIZ004>006-011>014-085-230700-
CENTRAL UPPER MICHIGAN

CITY           SKY/WX    TMP DP  RH WIND       PRES   REMARKS
MANISTIQUE     CLEAR     44  37  76 W3        30.01S
6HR MIN TEMP:  36; 6HR MAX TEMP:  44;

ESCANABA       CLEAR     45  33  63 CALM      30.03S
6HR MIN TEMP:  42; 6HR MAX TEMP:  51;

MENOMINEE      CLEAR     49  34  56 SW6       30.06F
6HR MIN TEMP:  49; 6HR MAX TEMP:  60;

SAWYER-GWINN   CLEAR     40  35  79 N8        30.03S
6HR MIN TEMP:  39; 6HR MAX TEMP:  59;

$$
MIZ001>003-009>011-084-230700-
WESTERN UPPER MICHIGAN

CITY           SKY/WX    TMP DP  RH WIND       PRES   REMARKS
IRON MOUNTAIN  CLEAR     51  29  42 NW9       30.02S
6HR MIN TEMP:  51; 6HR MAX TEMP:  65;

HOUGHTON       LGT RAIN  45  39  79 NE6       30.03S
6HR MIN TEMP:  43; 6HR MAX TEMP:  64; 6HR PCP: TRACE;

COPPER HARBOR    N/A     37  34  89 NE13      30.06R WCI  29
6HR MIN TEMP:  37; 6HR MAX TEMP:  63; 6HR PCP:  0.06;

$$

ABBREVIATIONS USED IN REMARKS
   TC - TEMPERATURE IN CELSIUS
  WCI - WIND CHILL INDEX
   HX - HEAT INDEX
  VSB - VISIBILITY





USA.gov is the U.S. government's official web portal to all federal, state and local government web resources and services.